Location: Gaast
(52.9002°N, 5.8891°E)
Time: 03:06:53
(UTC+00:00)

Cosmos 2151 Rocket - Pass Details

Date: 18 November 2025
Orbit: 611 x 636 km, 82.5° (Epoch: 15 December)

Event Time Altitude Azimuth Distance (km) Brightness Sun altitude
Rises 17:55:00 0° 189° (S) 2,921 7.2 -20.3°
Reaches altitude 10° 17:57:14 10° 190° (S) 2,019 6.4 -20.7°
Maximum altitude 18:01:43 89° 267° (W) 645 3.5 -21.3°
Enters shadow 18:05:17 17° 11° (N) 1,647 5.6 -21.9°
